#timestamp,LO_Frequency,Hit,StdDev 
1504249215.2,286046996.6,N,1.2
1504249235.0,286046996.9,N,1.2
1504249235.9,286046996.9,N,1.2
1504249255.8,286046999.2,N,1.2
1504249275.6,286046998.9,N,1.2
1504249295.4,286046998.2,N,1.2
1504249315.3,286046998.4,N,1.1
1504249335.1,286046999.3,N,1.1
1504249355.9,286046996.8,N,1.1
1504249375.7,286046997.0,N,1.1
1504249395.5,286046997.3,N,1.1
1504249415.6,286046999.5,N,1.1
1504249435.4,286046999.2,N,1.1
1504249455.3,286046997.4,N,1.1
1504249475.1,286046996.8,N,1.1
1504249495.8,286046997.3,N,1.1
1504249515.7,286046997.7,N,1.1
1504249535.5,286046997.8,N,1.1
1504249555.4,286046995.0,Y,0.0
1504249575.2,286046999.3,P,0.7
1504249595.0,286046998.7,N,0.5
1504249595.9,286046998.7,N,0.5
1504249615.8,286046998.4,Y,0.0
1504249635.6,286047001.0,P,1.2
1504249655.5,286046998.2,N,1.2
1504249675.3,286047000.5,N,1.2
1504249695.1,286047001.2,N,1.2
1504249715.9,286046998.6,N,1.2
1504249735.7,286046999.0,N,1.2
1504249755.6,286046998.9,N,1.1
1504249775.4,286046999.3,N,1.1
1504249795.2,286046999.1,N,1.0
1504249815.1,286046998.8,N,1.0
1504249816.0,286046998.8,N,0.9
1504249835.8,286046998.2,N,1.0
1504249855.7,286047000.7,N,1.0
1504249875.5,286046998.5,N,1.0
1504249895.3,286047000.8,N,1.0
1504249915.2,286047000.6,N,1.0
1504249935.0,286047001.0,N,1.1
1504249935.9,286047001.0,N,1.1
1504249955.8,286047000.9,N,1.1
1504249975.6,286046998.6,N,1.1
1504249995.4,286046999.0,N,1.1
1504250015.3,286046998.9,N,1.1
1504250035.1,286046998.4,N,1.1
1504250055.8,286046999.3,N,1.0
1504250075.7,286046996.5,Y,0.0
1504250095.5,286046998.4,P,0.6
1504250115.4,286046999.0,N,0.5
1504250135.2,286046999.4,N,0.4
1504250155.0,286046999.1,N,0.4
1504250155.9,286046999.1,N,0.4
1504250175.8,286046996.9,Y,0.0
1504250195.6,286046996.8,P,1.1
1504250215.5,286046996.6,P,1.1
1504250235.3,286046999.2,N,1.2
1504250255.1,286046997.0,N,1.2
1504250275.9,286046998.9,N,1.1
1504250295.7,286047001.2,N,1.6
1504250315.6,286047000.5,N,1.6
1504250335.4,286047000.4,N,1.6
1504250355.2,286047000.6,N,1.6
1504250375.1,286047000.9,N,1.6
1504250376.0,286047000.9,N,1.6
1504250395.8,286047001.1,N,1.6
1504250415.7,286047000.9,N,1.6
1504250435.5,286047000.8,N,1.6
1504250455.3,286047000.7,N,1.6
1504250475.2,286047001.2,N,1.6
1504250495.0,286047000.6,N,1.5
1504250495.9,286047000.6,N,1.5
1504250515.8,286047000.7,N,1.5
1504250535.6,286047000.7,N,1.4
1504250555.4,286046998.1,N,1.5
1504250575.3,286047000.9,N,1.4
1504250595.1,286047000.9,N,1.4
1504250615.8,286047001.2,N,1.4
1504250635.7,286047001.1,N,1.4
1504250655.5,286046999.9,N,1.4
1504250675.4,286047002.4,N,1.4
1504250695.2,286047000.1,N,1.4
1504250715.0,286046999.8,N,1.4
1504250715.9,286046999.8,N,1.4
1504250735.8,286047002.4,N,1.3
1504250755.6,286682705.2,Y,0.0
1504250775.5,286047000.7,P,0.2
1504250795.3,286047000.7,P,0.2
1504250815.1,286046999.9,N,0.3
1504250835.9,286047000.3,N,0.3
1504250855.7,286047000.1,N,0.3
1504250875.6,286047002.5,Y,0.0
1504250895.4,286047000.2,P,0.1
1504250915.2,286046999.9,N,0.2
1504250935.1,286047001.9,P,0.8
1504250936.0,286047001.9,N,0.9
1504250955.8,286047002.8,Y,0.0
1504250975.7,286047000.4,P,0.2
1504250995.5,286047000.6,N,0.2
1504251015.3,286047000.6,P,0.2
1504251035.2,286047002.8,Y,0.0
1504251055.0,286047002.8,P,1.1
1504251055.9,286047002.8,N,1.0
1504251075.8,286047002.4,N,0.9
1504251095.6,286046999.7,N,1.3
1504251115.4,286047000.2,N,1.3
1504251135.3,286047002.2,N,1.2
1504251155.1,286046999.7,N,1.3
1504251175.8,286047002.7,N,1.3
1504251195.7,286047002.0,N,1.2
1504251215.5,286047001.9,N,1.2
1504251235.4,286046999.8,N,1.2
1504251255.2,286046999.8,N,1.3
1504251275.0,286047002.4,N,1.2
1504251275.9,286047002.4,N,1.2
1504251295.8,286047002.7,N,1.2
1504251315.6,286046999.7,N,1.3
1504251335.5,286047002.5,N,1.3
1504251355.3,286047002.0,N,1.2
1504251375.1,286047002.5,N,1.2
1504251395.9,286047001.6,N,1.2
1504251415.7,286047002.3,N,1.2
1504251435.5,286047001.7,N,1.1
1504251455.4,286047002.1,N,1.1
1504251475.2,286047001.5,N,1.1
1504251495.1,286047002.1,N,1.1
1504251496.0,286047002.1,N,1.1
1504251515.8,286047002.2,N,1.1
1504251535.6,286047004.4,Y,0.0
1504251555.5,286047002.3,P,0.3
1504251575.3,286047000.2,N,0.9
1504251595.2,286047002.4,N,0.9
1504251615.9,286047000.4,N,0.9
1504251635.7,286047000.4,N,0.9
1504251655.6,286047002.1,N,0.9
1504251675.4,286047002.3,N,0.9
1504251695.3,286047002.8,Y,0.0
1504251715.1,286047000.0,P,0.7
1504251716.0,286047000.0,N,0.7
1504251735.8,286047000.6,N,0.6
1504251755.7,286047001.0,N,0.6
1504251775.5,286047000.8,N,0.5
1504251795.3,286047000.5,N,0.5
1504251815.2,286046998.2,Y,0.0
1504251835.0,286046998.2,P,1.2
1504251835.9,286046998.2,N,1.1
1504251855.8,286047000.6,N,1.2
1504251875.6,286046998.4,N,1.2
1504251895.4,286047000.7,N,1.2
1504251915.3,286046998.5,N,1.2
1504251935.1,286047001.1,N,1.2
1504251955.9,286047000.5,N,1.2
1504251975.7,286047000.4,N,1.2
1504251995.5,286046999.9,N,1.1
1504252015.4,286047000.9,N,1.1
1504252035.2,286047000.6,N,1.1
1504252055.0,286046999.9,N,1.0
1504252056.0,286046999.9,N,1.0
1504252075.8,286047000.5,N,1.0
1504252095.6,286047000.8,N,1.0
1504252115.5,286047000.0,N,0.9
1504252135.3,286047000.4,N,0.9
1504252155.1,286047000.5,N,0.9
1504252175.9,286047000.2,N,0.9
1504252195.7,286047000.3,N,0.9
1504252215.6,286047000.7,N,0.9
1504252235.4,286047000.1,N,0.8
1504252255.2,286047000.0,N,0.8
1504252275.1,286047000.8,N,0.8
1504252276.0,286047000.8,N,0.8
1504252295.8,286047002.3,N,0.9
1504252315.7,286046999.7,N,0.9
1504252335.5,286046999.9,N,0.9
1504252355.3,286046999.7,N,0.9
1504252375.2,286047002.1,N,0.9
1504252395.0,286047002.0,N,0.8
1504252395.9,286047002.0,N,0.9
1504252415.8,286047002.5,N,0.9
1504252435.6,286046999.9,N,0.9
1504252455.4,286047002.1,N,0.8
1504252475.3,286047002.8,Y,0.0
1504252495.1,286047000.0,P,0.3
1504252515.8,286047001.0,N,0.4
1504252535.7,286047000.0,N,0.4
1504252555.5,286047000.9,N,0.4
1504252575.4,286047001.1,N,0.5
1504252595.2,286047000.3,N,0.4
1504252615.0,286047000.6,N,0.4
1504252615.9,286047000.6,N,0.4
1504252635.8,286047000.4,N,0.4
1504252655.6,286047000.9,N,0.4
1504252675.5,286047000.8,N,0.4
1504252695.3,286047002.3,Y,0.0
1504252715.1,286047000.1,P,0.3
1504252735.9,286046999.8,N,0.3
1504252755.7,286047000.7,N,0.4
1504252775.5,286047001.1,N,0.5
1504252795.4,286047001.1,N,0.5
